Time,TemperatureF,DewpointF,PressureIn,WindDirection,WindDirectionDegrees,WindSpeedMPH,WindSpeedGustMPH,Humidity,HourlyPrecipIn,Conditions,Clouds,dailyrainin,SoftwareType,DateUTC
2013-01-13 00:03:00,29.0,27.0,29.91,NNE,22,9.0,15.0,92,0.00,,,0.02,,2013-01-13 06:03:00,
2013-01-13 00:12:00,29.0,27.0,29.91,NNE,22,9.0,15.0,92,0.00,,,0.02,,2013-01-13 06:12:00,
2013-01-13 00:22:00,29.0,27.0,29.91,NNE,22,8.0,15.0,93,0.00,,,0.02,,2013-01-13 06:22:00,
2013-01-13 00:32:00,29.0,27.0,29.90,NNE,22,7.0,17.0,93,0.00,,,0.01,,2013-01-13 06:32:00,
2013-01-13 00:42:00,29.0,27.0,29.90,NNE,22,7.0,17.0,93,0.00,,,0.01,,2013-01-13 06:42:00,
2013-01-13 00:52:00,29.0,27.0,29.91,NNE,22,6.0,16.0,94,0.00,,,0.01,,2013-01-13 06:52:00,
2013-01-13 01:02:00,29.0,27.0,29.91,NNE,22,7.0,14.0,94,0.00,,,0.01,,2013-01-13 07:02:00,
2013-01-13 01:12:00,29.0,27.0,29.91,NNE,22,7.0,14.0,94,0.00,,,0.01,,2013-01-13 07:12:00,
2013-01-13 01:22:00,28.0,27.0,29.91,NNE,22,6.0,14.0,94,0.00,,,0.01,,2013-01-13 07:22:00,
2013-01-13 01:32:00,28.0,26.0,29.92,NNE,22,6.0,13.0,93,0.00,,,0.01,,2013-01-13 07:32:00,
2013-01-13 01:42:00,28.0,26.0,29.92,NNE,22,6.0,13.0,93,0.00,,,0.01,,2013-01-13 07:42:00,
2013-01-13 01:52:00,28.0,27.0,29.91,NNE,22,7.0,12.0,94,0.00,,,0.01,,2013-01-13 07:52:00,
2013-01-13 02:02:00,28.0,27.0,29.91,NNE,22,5.0,11.0,94,0.00,,,0.01,,2013-01-13 08:02:00,
2013-01-13 02:12:00,28.0,27.0,29.91,NNE,22,5.0,11.0,94,0.00,,,0.01,,2013-01-13 08:12:00,
2013-01-13 02:22:00,28.0,27.0,29.92,NNE,22,6.0,10.0,94,0.00,,,0.01,,2013-01-13 08:22:00,
2013-01-13 02:32:00,28.0,26.0,29.96,NNE,22,3.0,8.0,93,0.00,,,0.01,,2013-01-13 08:32:00,
2013-01-13 02:42:00,28.0,26.0,29.96,NNE,22,3.0,8.0,93,0.00,,,0.01,,2013-01-13 08:42:00,
2013-01-13 02:52:00,28.0,26.0,29.94,NNE,22,5.0,8.0,93,0.00,,,0.01,,2013-01-13 08:52:00,
2013-01-13 03:02:00,28.0,26.0,29.93,NNE,22,6.0,10.0,93,0.00,,,0.01,,2013-01-13 09:02:00,
2013-01-13 03:12:00,28.0,26.0,29.93,NNE,22,6.0,12.0,92,0.00,,,0.01,,2013-01-13 09:12:00,
2013-01-13 03:22:00,28.0,26.0,29.93,NNE,22,6.0,12.0,92,0.00,,,0.01,,2013-01-13 09:22:00,
2013-01-13 03:32:00,27.0,25.0,29.93,NNE,22,4.0,10.0,92,0.00,,,0.01,,2013-01-13 09:32:00,
2013-01-13 03:42:00,27.0,25.0,29.93,NNE,22,4.0,10.0,92,0.00,,,0.01,,2013-01-13 09:42:00,
2013-01-13 03:52:00,27.0,25.0,29.95,NNE,22,5.0,11.0,91,0.00,,,0.01,,2013-01-13 09:52:00,
2013-01-13 04:02:00,27.0,25.0,29.94,NNE,22,3.0,9.0,92,0.00,,,0.01,,2013-01-13 10:02:00,
2013-01-13 04:12:00,27.0,25.0,29.94,NNE,22,3.0,9.0,92,0.00,,,0.01,,2013-01-13 10:12:00,
2013-01-13 04:22:00,27.0,25.0,29.96,NNE,22,4.0,8.0,92,0.00,,,0.01,,2013-01-13 10:22:00,
2013-01-13 04:32:00,27.0,25.0,29.99,NNE,22,6.0,10.0,92,0.00,,,0.01,,2013-01-13 10:32:00,
2013-01-13 04:42:00,27.0,25.0,29.99,NNE,22,6.0,10.0,92,0.00,,,0.01,,2013-01-13 10:42:00,
2013-01-13 04:52:00,26.0,24.0,29.99,NNE,22,10.0,14.0,91,0.00,,,0.01,,2013-01-13 10:52:00,
2013-01-13 05:02:00,26.0,24.0,30.01,NNE,22,6.0,12.0,91,0.00,,,0.01,,2013-01-13 11:02:00,
2013-01-13 05:12:00,26.0,24.0,30.01,NNE,22,6.0,12.0,91,0.00,,,0.01,,2013-01-13 11:12:00,
2013-01-13 05:22:00,26.0,24.0,30.00,NNE,22,6.0,12.0,91,0.00,,,0.01,,2013-01-13 11:22:00,
2013-01-13 05:32:00,25.0,23.0,29.97,NNE,22,6.0,11.0,91,0.00,,,0.01,,2013-01-13 11:32:00,
2013-01-13 05:42:00,25.0,23.0,29.97,NNE,22,6.0,11.0,91,0.00,,,0.01,,2013-01-13 11:42:00,
2013-01-13 05:52:00,25.0,23.0,30.00,NNE,22,6.0,12.0,91,0.00,,,0.01,,2013-01-13 11:52:00,
2013-01-13 06:03:00,24.0,22.0,30.00,NNE,22,6.0,14.0,91,0.00,,,0.01,,2013-01-13 12:03:00,
2013-01-13 06:12:00,24.0,22.0,30.00,NNE,22,6.0,14.0,91,0.00,,,0.01,,2013-01-13 12:12:00,
2013-01-13 06:22:00,24.0,22.0,30.01,NNE,22,5.0,9.0,91,0.00,,,0.01,,2013-01-13 12:22:00,
2013-01-13 06:32:00,24.0,22.0,30.00,NNE,22,5.0,12.0,90,0.00,,,0.01,,2013-01-13 12:32:00,
2013-01-13 06:42:00,24.0,22.0,30.00,NNE,22,5.0,12.0,90,0.00,,,0.01,,2013-01-13 12:42:00,
2013-01-13 06:52:00,24.0,22.0,30.01,NNE,22,7.0,13.0,90,0.00,,,0.01,,2013-01-13 12:52:00,
2013-01-13 07:02:00,24.0,22.0,30.00,NNE,22,7.0,12.0,90,0.00,,,0.01,,2013-01-13 13:02:00,
2013-01-13 07:12:00,24.0,22.0,30.00,NNE,22,7.0,12.0,90,0.00,,,0.01,,2013-01-13 13:12:00,
2013-01-13 07:22:00,24.0,22.0,30.04,NNE,22,7.0,13.0,90,0.00,,,0.01,,2013-01-13 13:22:00,
2013-01-13 07:33:00,24.0,21.0,30.03,NNE,22,6.0,13.0,89,0.00,,,0.01,,2013-01-13 13:33:00,
2013-01-13 07:42:00,24.0,21.0,30.03,NNE,22,6.0,13.0,89,0.00,,,0.01,,2013-01-13 13:42:00,
2013-01-13 07:53:00,24.0,22.0,30.05,NNE,22,7.0,11.0,90,0.00,,,0.01,,2013-01-13 13:53:00,
2013-01-13 08:03:00,23.0,20.0,30.05,NNE,22,8.0,13.0,89,0.00,,,0.01,,2013-01-13 14:03:00,
2013-01-13 08:12:00,23.0,20.0,30.05,NNE,22,8.0,13.0,89,0.00,,,0.01,,2013-01-13 14:12:00,
2013-01-13 08:22:00,23.0,20.0,30.03,NNE,22,6.0,11.0,88,0.00,,,0.01,,2013-01-13 14:22:00,
2013-01-13 08:33:00,23.0,20.0,30.01,NNE,22,4.0,11.0,89,0.00,,,0.01,,2013-01-13 14:33:00,
2013-01-13 08:43:00,23.0,20.0,30.01,NNE,22,4.0,11.0,89,0.00,,,0.01,,2013-01-13 14:43:00,
2013-01-13 08:52:00,24.0,22.0,30.11,NNE,22,8.0,13.0,90,0.00,,,0.01,,2013-01-13 14:52:00,
2013-01-13 09:03:00,23.0,20.0,30.08,NNE,22,8.0,14.0,88,0.00,,,0.01,,2013-01-13 15:03:00,
2013-01-13 09:12:00,23.0,20.0,30.08,NNE,22,8.0,14.0,88,0.00,,,0.01,,2013-01-13 15:12:00,
2013-01-13 09:23:00,23.0,20.0,30.09,NNE,22,8.0,13.0,89,0.00,,,0.01,,2013-01-13 15:23:00,
2013-01-13 09:33:00,23.0,20.0,30.08,NNE,22,7.0,12.0,89,0.00,,,0.01,,2013-01-13 15:33:00,
2013-01-13 09:43:00,23.0,20.0,30.08,NNE,22,7.0,12.0,89,0.00,,,0.01,,2013-01-13 15:43:00,
2013-01-13 09:52:00,23.0,20.0,30.07,NNE,22,7.0,11.0,88,0.00,,,0.01,,2013-01-13 15:52:00,
2013-01-13 10:03:00,23.0,20.0,30.07,NNE,22,5.0,10.0,89,0.00,,,0.01,,2013-01-13 16:03:00,
2013-01-13 10:12:00,23.0,20.0,30.07,NNE,22,5.0,10.0,89,0.00,,,0.01,,2013-01-13 16:12:00,
2013-01-13 10:23:00,23.0,20.0,30.07,NNE,22,8.0,11.0,88,0.00,,,0.01,,2013-01-13 16:23:00,
2013-01-13 10:33:00,22.0,19.0,30.07,NW,316,8.0,14.0,88,0.00,,,0.00,,2013-01-13 16:33:00,
2013-01-13 10:43:00,22.0,19.0,30.07,NW,316,8.0,14.0,88,0.00,,,0.00,,2013-01-13 16:43:00,
2013-01-13 10:52:00,22.0,19.0,30.06,WNW,290,10.0,15.0,88,0.00,,,0.00,,2013-01-13 16:52:00,
2013-01-13 11:03:00,21.0,18.0,30.04,NNW,328,10.0,15.0,89,0.00,,,0.00,,2013-01-13 17:03:00,
2013-01-13 11:12:00,21.0,18.0,30.04,NNW,328,10.0,15.0,89,0.00,,,0.00,,2013-01-13 17:12:00,
2013-01-13 11:22:00,21.0,18.0,30.03,NNW,339,10.0,15.0,88,0.00,,,0.00,,2013-01-13 17:22:00,
2013-01-13 11:33:00,21.0,18.0,30.07,NW,310,9.0,17.0,88,0.00,,,0.00,,2013-01-13 17:33:00,
2013-01-13 11:42:00,21.0,18.0,30.07,NW,310,9.0,17.0,88,0.00,,,0.00,,2013-01-13 17:42:00,
2013-01-13 11:53:00,21.0,18.0,30.09,NW,323,8.0,15.0,87,0.00,,,0.00,,2013-01-13 17:53:00,
2013-01-13 12:03:00,21.0,17.0,30.10,NW,304,8.0,12.0,86,0.00,,,0.00,,2013-01-13 18:03:00,
2013-01-13 12:12:00,21.0,17.0,30.10,NW,304,8.0,12.0,86,0.00,,,0.00,,2013-01-13 18:12:00,
2013-01-13 12:23:00,21.0,18.0,30.11,NW,322,7.0,14.0,87,0.00,,,0.00,,2013-01-13 18:23:00,
2013-01-13 12:33:00,21.0,18.0,30.10,WNW,292,8.0,14.0,87,0.00,,,0.00,,2013-01-13 18:33:00,
2013-01-13 12:42:00,21.0,18.0,30.10,WNW,292,8.0,14.0,87,0.00,,,0.00,,2013-01-13 18:42:00,
2013-01-13 12:53:00,21.0,18.0,30.09,NW,304,9.0,17.0,87,0.00,,,0.00,,2013-01-13 18:53:00,
2013-01-13 13:03:00,20.0,16.0,30.06,NW,306,8.0,15.0,86,0.00,,,0.00,,2013-01-13 19:03:00,
2013-01-13 13:12:00,20.0,16.0,30.06,NW,306,8.0,15.0,86,0.00,,,0.00,,2013-01-13 19:12:00,
2013-01-13 13:22:00,20.0,17.0,30.04,NW,314,7.0,13.0,87,0.00,,,0.00,,2013-01-13 19:22:00,
2013-01-13 13:33:00,20.0,16.0,30.06,NW,311,10.0,16.0,85,0.00,,,0.00,,2013-01-13 19:33:00,
2013-01-13 13:43:00,20.0,16.0,30.06,NW,311,10.0,16.0,85,0.00,,,0.00,,2013-01-13 19:43:00,
2013-01-13 13:52:00,20.0,16.0,30.06,NNW,336,11.0,17.0,85,0.00,,,0.00,,2013-01-13 19:52:00,
2013-01-13 14:03:00,20.0,16.0,30.07,WNW,303,11.0,17.0,86,0.00,,,0.00,,2013-01-13 20:03:00,
2013-01-13 14:12:00,20.0,16.0,30.07,WNW,303,11.0,17.0,86,0.00,,,0.00,,2013-01-13 20:12:00,
2013-01-13 14:22:00,20.0,16.0,30.07,NNW,331,8.0,16.0,85,0.00,,,0.00,,2013-01-13 20:22:00,
2013-01-13 14:33:00,20.0,16.0,30.09,NW,312,10.0,17.0,84,0.00,,,0.00,,2013-01-13 20:33:00,
2013-01-13 14:43:00,20.0,16.0,30.09,NW,312,10.0,17.0,84,0.00,,,0.00,,2013-01-13 20:43:00,
2013-01-13 14:53:00,20.0,16.0,30.10,NW,317,9.0,15.0,84,0.00,,,0.00,,2013-01-13 20:53:00,
2013-01-13 15:03:00,20.0,16.0,30.10,NW,308,11.0,15.0,84,0.00,,,0.00,,2013-01-13 21:03:00,
2013-01-13 15:12:00,20.0,16.0,30.10,NW,308,11.0,15.0,84,0.00,,,0.00,,2013-01-13 21:12:00,
2013-01-13 15:23:00,20.0,16.0,30.11,NNW,329,7.0,13.0,85,0.00,,,0.00,,2013-01-13 21:23:00,
2013-01-13 15:33:00,20.0,16.0,30.12,NNW,327,6.0,13.0,86,0.00,,,0.00,,2013-01-13 21:33:00,
2013-01-13 15:43:00,20.0,16.0,30.12,NNW,327,6.0,13.0,86,0.00,,,0.00,,2013-01-13 21:43:00,
2013-01-13 15:52:00,20.0,16.0,30.14,NNW,344,7.0,15.0,86,0.00,,,0.00,,2013-01-13 21:52:00,
2013-01-13 16:02:00,20.0,16.0,30.15,NW,311,7.0,13.0,85,0.00,,,0.00,,2013-01-13 22:02:00,
2013-01-13 16:12:00,20.0,16.0,30.15,NW,311,7.0,13.0,85,0.00,,,0.00,,2013-01-13 22:12:00,
2013-01-13 16:22:00,20.0,16.0,30.16,NNW,330,7.0,14.0,84,0.00,,,0.00,,2013-01-13 22:22:00,
2013-01-13 16:33:00,20.0,16.0,30.18,WNW,292,6.0,13.0,84,0.00,,,0.00,,2013-01-13 22:33:00,
2013-01-13 16:43:00,20.0,16.0,30.18,WNW,292,6.0,13.0,84,0.00,,,0.00,,2013-01-13 22:43:00,
2013-01-13 16:52:00,20.0,16.0,30.19,WNW,296,7.0,14.0,83,0.00,,,0.00,,2013-01-13 22:52:00,
2013-01-13 17:02:00,20.0,16.0,30.20,NW,310,7.0,13.0,84,0.00,,,0.00,,2013-01-13 23:02:00,
2013-01-13 17:12:00,20.0,16.0,30.20,NW,310,7.0,13.0,84,0.00,,,0.00,,2013-01-13 23:12:00,
2013-01-13 17:22:00,20.0,16.0,30.21,West,277,8.0,13.0,85,0.00,,,0.00,,2013-01-13 23:22:00,
2013-01-13 17:33:00,20.0,16.0,30.21,West,263,8.0,13.0,85,0.00,,,0.00,,2013-01-13 23:33:00,
2013-01-13 17:42:00,20.0,16.0,30.21,West,263,8.0,13.0,85,0.00,,,0.00,,2013-01-13 23:42:00,
2013-01-13 17:52:00,19.0,15.0,30.23,WNW,303,8.0,15.0,85,0.00,,,0.00,,2013-01-13 23:52:00,
2013-01-13 18:03:00,19.0,15.0,30.24,NW,311,10.0,18.0,83,0.00,,,0.00,,2013-01-14 00:03:00,
2013-01-13 18:12:00,19.0,15.0,30.24,NW,311,10.0,18.0,83,0.00,,,0.00,,2013-01-14 00:12:00,
2013-01-13 18:22:00,19.0,15.0,30.24,WNW,298,11.0,16.0,84,0.00,,,0.00,,2013-01-14 00:22:00,
2013-01-13 18:33:00,18.0,13.0,30.25,NW,312,9.0,16.0,82,0.00,,,0.00,,2013-01-14 00:33:00,
2013-01-13 18:43:00,18.0,13.0,30.25,NW,312,9.0,16.0,82,0.00,,,0.00,,2013-01-14 00:43:00,
2013-01-13 18:52:00,17.0,12.0,30.26,WNW,302,10.0,16.0,82,0.00,,,0.00,,2013-01-14 00:52:00,
2013-01-13 19:03:00,17.0,12.0,30.27,WNW,284,10.0,16.0,82,0.00,,,0.00,,2013-01-14 01:03:00,
2013-01-13 19:12:00,17.0,12.0,30.27,WNW,284,10.0,16.0,82,0.00,,,0.00,,2013-01-14 01:12:00,
2013-01-13 19:22:00,17.0,12.0,30.27,WNW,293,7.0,14.0,82,0.00,,,0.00,,2013-01-14 01:22:00,
2013-01-13 19:32:00,17.0,13.0,30.27,NW,307,7.0,12.0,83,0.00,,,0.00,,2013-01-14 01:32:00,
2013-01-13 19:42:00,17.0,13.0,30.27,NW,307,7.0,12.0,83,0.00,,,0.00,,2013-01-14 01:42:00,
2013-01-13 19:52:00,16.0,12.0,30.27,WNW,302,7.0,13.0,83,0.00,,,0.00,,2013-01-14 01:52:00,
2013-01-13 20:02:00,16.0,12.0,30.28,WNW,296,5.0,10.0,83,0.00,,,0.00,,2013-01-14 02:02:00,
2013-01-13 20:12:00,16.0,12.0,30.28,WNW,296,5.0,10.0,83,0.00,,,0.00,,2013-01-14 02:12:00,
2013-01-13 20:22:00,16.0,12.0,30.29,WNW,303,4.0,9.0,84,0.00,,,0.00,,2013-01-14 02:22:00,
2013-01-13 20:32:00,16.0,12.0,30.29,NW,311,6.0,10.0,85,0.00,,,0.00,,2013-01-14 02:32:00,
2013-01-13 20:42:00,16.0,12.0,30.29,NW,311,6.0,10.0,85,0.00,,,0.00,,2013-01-14 02:42:00,
2013-01-13 20:53:00,16.0,12.0,30.29,NW,319,5.0,10.0,84,0.00,,,0.00,,2013-01-14 02:53:00,
2013-01-13 21:02:00,16.0,12.0,30.29,NW,306,4.0,9.0,84,0.00,,,0.00,,2013-01-14 03:02:00,
2013-01-13 21:12:00,16.0,12.0,30.29,NW,306,4.0,9.0,84,0.00,,,0.00,,2013-01-14 03:12:00,
2013-01-13 21:22:00,16.0,12.0,30.29,WNW,301,5.0,8.0,84,0.00,,,0.00,,2013-01-14 03:22:00,
2013-01-13 21:32:00,16.0,12.0,30.29,WNW,291,6.0,9.0,85,0.00,,,0.00,,2013-01-14 03:32:00,
2013-01-13 21:42:00,16.0,12.0,30.29,WNW,291,6.0,9.0,85,0.00,,,0.00,,2013-01-14 03:42:00,
2013-01-13 21:52:00,16.0,12.0,30.29,NW,314,5.0,9.0,85,0.00,,,0.00,,2013-01-14 03:52:00,
2013-01-13 22:02:00,16.0,12.0,30.29,NW,320,6.0,10.0,85,0.00,,,0.00,,2013-01-14 04:02:00,
2013-01-13 22:12:00,16.0,12.0,30.29,NW,320,6.0,10.0,85,0.00,,,0.00,,2013-01-14 04:12:00,
2013-01-13 22:22:00,16.0,12.0,30.29,WNW,290,6.0,10.0,85,0.00,,,0.00,,2013-01-14 04:22:00,
2013-01-13 22:32:00,16.0,12.0,30.30,NW,323,6.0,9.0,85,0.00,,,0.00,,2013-01-14 04:32:00,
2013-01-13 22:42:00,16.0,12.0,30.30,NW,323,6.0,9.0,85,0.00,,,0.00,,2013-01-14 04:42:00,